sat.trackr.live / text

‹ back to catalog

ONEWEB-0709

NORAD 55172 · 2023-004AJ

PAYLOAD ACTIVE UNKNOWN

§ Identity

Operator
Country
UK
Launch date
2023-01-10
Launch site
AFETR
Launch vehicle
Mass (kg)
RCS (m²)

Purposes: comms

External: N2YO · Heavens-Above · Gunter

§ Orbital elements

Epoch: 2026-05-25T02:04:26.352768Z

Period
109.80 min
Inclination
87.8908°
Eccentricity
0.0000923
Mean motion
13.11418427 rev/d
Perigee alt
1,217.0 km
Apogee alt
1,218.4 km
Semi-major
7,595.8 km
B*
-1.1676e-3
RAAN
25.6761°
Arg perigee
88.9988°
Mean anomaly
271.1245°
Rev number
16,284

§ Raw data

ONEWEB-07091 55172U 23004AJ  26145.08641612 -.00000401  00000+0 -11676-2 0  99942 55172  87.8908  25.6761 0000923  88.9988 271.1245 13.11418427162848

JSON: /api/v1/satellites/55172 · /tle

For live sub-satellite position, see the globe view (requires WebGL).

§ Visibility from observer

Set your observer location to see the next 7 days of passes ≥ 10°. The values pass through the URL so the page stays shareable.

No JS? Fill the form by hand. The geolocation button needs JavaScript.